When you browse on this site, cookies collect data to enhance your experience and personalize the content and advertising you see.
Visit our Privacy Policy to learn more. By continuing to use the site, you agree to this use of cookies and data.
  • In Slovakia
  • List of Countries
  • For 7 days
  • Water Temperature
  • Satellite Maps
  • Weather Map
  • Weather Widgets
  • user-avatar
    Login

    Hourly Weather Kullar

    Today, 26 April, Friday

    Time Temperature Precipitation Wind Pressure Humidity
    00:00 +13°C° 0 mm 3 mps 764 mmHg 42%
    01:00 +13°C° 0 mm 3 mps 764 mmHg 42%
    02:00 +12°C° 0 mm 3 mps 764 mmHg 41%
    03:00 +13°C° 0 mm 4 mps 763 mmHg 40%
    04:00 +13°C° 0 mm 4 mps 763 mmHg 41%
    05:00 +13°C° 0 mm 3 mps 763 mmHg 43%
    06:00 +13°C° 0 mm 3 mps 763 mmHg 44%
    07:00 +16°C° 0 mm 2 mps 763 mmHg 42%
    08:00 +18°C° 0 mm 2 mps 763 mmHg 40%
    09:00 +22°C° 0 mm 1 mps 762 mmHg 37%
    10:00 +21°C° 0 mm 2 mps 762 mmHg 37%
    11:00 +22°C° 0 mm 3 mps 762 mmHg 37%
    12:00 +22°C° 0 mm 4 mps 762 mmHg 36%
    13:00 +22°C° 0 mm 4 mps 762 mmHg 38%
    14:00 +22°C° 0 mm 4 mps 762 mmHg 39%
    15:00 +21°C° 0 mm 5 mps 761 mmHg 40%
    16:00 +20°C° 0 mm 4 mps 761 mmHg 45%
    17:00 +19°C° 0 mm 4 mps 761 mmHg 50%
    18:00 +18°C° 0 mm 3 mps 761 mmHg 54%
    19:00 +16°C° 0 mm 3 mps 761 mmHg 55%
    20:00 +14°C° 0 mm 3 mps 761 mmHg 55%
    21:00 +14°C° 0 mm 2 mps 761 mmHg 56%
    22:00 +14°C° 0 mm 2 mps 761 mmHg 53%
    23:00 +14°C° 0 mm 2 mps 761 mmHg 51%

    Tomorrow, 27 April, Saturday

    Time Temperature Precipitation Wind Pressure Humidity
    00:00 +13°C° 0 mm 2 mps 761 mmHg 49%
    01:00 +13°C° 0 mm 2 mps 761 mmHg 47%
    02:00 +13°C° 0 mm 2 mps 761 mmHg 45%
    03:00 +13°C° 0 mm 2 mps 761 mmHg 43%
    04:00 +13°C° 0 mm 2 mps 760 mmHg 44%
    05:00 +13°C° 0 mm 2 mps 760 mmHg 45%
    06:00 +14°C° 0 mm 2 mps 760 mmHg 46%
    07:00 +16°C° 0 mm 2 mps 760 mmHg 40%
    08:00 +18°C° 0 mm 2 mps 760 mmHg 34%
    09:00 +21°C° 0 mm 2 mps 760 mmHg 27%
    10:00 +21°C° 0 mm 3 mps 760 mmHg 28%
    11:00 +22°C° 0 mm 4 mps 759 mmHg 30%
    12:00 +23°C° 0 mm 5 mps 759 mmHg 31%
    13:00 +23°C° 0 mm 5 mps 759 mmHg 33%
    14:00 +23°C° 0 mm 5 mps 758 mmHg 34%
    15:00 +23°C° 0 mm 5 mps 758 mmHg 36%
    16:00 +21°C° 0 mm 4 mps 758 mmHg 43%
    17:00 +20°C° 0 mm 4 mps 758 mmHg 50%
    18:00 +18°C° 0 mm 3 mps 757 mmHg 57%
    19:00 +17°C° 0 mm 3 mps 758 mmHg 59%
    20:00 +16°C° 0 mm 3 mps 758 mmHg 60%
    21:00 +14°C° 0 mm 3 mps 758 mmHg 61%
    22:00 +13°C° 0 mm 3 mps 758 mmHg 59%
    23:00 +13°C° 0 mm 3 mps 757 mmHg 57%

    Day after tomorrow, 28 April, Sunday

    Time Temperature Precipitation Wind Pressure Humidity
    00:00 +13°C° 0 mm 3 mps 757 mmHg 56%
    01:00 +13°C° 0 mm 3 mps 757 mmHg 54%
    02:00 +12°C° 0 mm 3 mps 756 mmHg 52%
    03:00 +12°C° 0 mm 3 mps 756 mmHg 50%
    04:00 +14°C° 0 mm 2 mps 756 mmHg 49%
    05:00 +14°C° 0 mm 2 mps 755 mmHg 49%
    06:00 +15°C° 0 mm 2 mps 755 mmHg 48%
    07:00 +17°C° 0 mm 2 mps 755 mmHg 44%
    08:00 +19°C° 0 mm 2 mps 755 mmHg 40%
    09:00 +21°C° 0 mm 2 mps 755 mmHg 36%
    10:00 +23°C° 0 mm 2 mps 755 mmHg 37%
    11:00 +22°C° 0 mm 3 mps 754 mmHg 39%
    12:00 +24°C° 0 mm 3 mps 754 mmHg 40%
    13:00 +22°C° 0 mm 3 mps 754 mmHg 42%
    14:00 +22°C° 0 mm 3 mps 753 mmHg 44%
    15:00 +22°C° 0 mm 3 mps 753 mmHg 45%
    16:00 +21°C° 0 mm 3 mps 753 mmHg 51%
    17:00 +20°C° 0 mm 2 mps 753 mmHg 56%
    18:00 +18°C° 0 mm 2 mps 753 mmHg 62%
    19:00 +18°C° 0 mm 2 mps 753 mmHg 62%
    20:00 +17°C° 0 mm 2 mps 754 mmHg 62%
    21:00 +17°C° 0 mm 2 mps 754 mmHg 63%
    22:00 +16°C° 0 mm 2 mps 754 mmHg 60%
    23:00 +16°C° 0 mm 2 mps 754 mmHg 57%

    29 April, Monday

    Time Temperature Precipitation Wind Pressure Humidity
    00:00 +16°C° 0 mm 2 mps 754 mmHg 54%
    01:00 +16°C° 0 mm 2 mps 754 mmHg 52%
    02:00 +16°C° 0 mm 2 mps 754 mmHg 51%
    03:00 +15°C° 0 mm 2 mps 754 mmHg 49%
    04:00 +16°C° 0 mm 2 mps 754 mmHg 49%
    05:00 +16°C° 0 mm 2 mps 754 mmHg 49%
    06:00 +17°C° 0 mm 2 mps 754 mmHg 49%
    07:00 +19°C° 0 mm 2 mps 754 mmHg 45%
    08:00 +22°C° 0 mm 1 mps 754 mmHg 41%
    09:00 +24°C° 0 mm 1 mps 754 mmHg 36%
    10:00 +25°C° 0 mm 2 mps 754 mmHg 36%
    11:00 +25°C° 0 mm 2 mps 754 mmHg 35%
    12:00 +26°C° 0 mm 3 mps 754 mmHg 35%
    13:00 +25°C° 0 mm 3 mps 754 mmHg 37%
    14:00 +25°C° 0 mm 4 mps 754 mmHg 39%
    15:00 +25°C° 0 mm 4 mps 754 mmHg 40%
    16:00 +22°C° 0 mm 3 mps 754 mmHg 46%
    17:00 +21°C° 0 mm 3 mps 754 mmHg 51%
    18:00 +20°C° 0 mm 2 mps 754 mmHg 57%
    19:00 +19°C° 0 mm 2 mps 754 mmHg 59%
    20:00 +18°C° 0 mm 2 mps 755 mmHg 61%
    21:00 +16°C° 0 mm 2 mps 755 mmHg 64%
    22:00 +16°C° 0 mm 2 mps 755 mmHg 62%
    23:00 +16°C° 0 mm 1 mps 755 mmHg 60%

    30 April, Tuesday

    Time Temperature Precipitation Wind Pressure Humidity
    00:00 +16°C° 0 mm 1 mps 755 mmHg 58%
    01:00 +16°C° 0 mm 1 mps 755 mmHg 55%
    02:00 +16°C° 0 mm 1 mps 754 mmHg 52%
    03:00 +16°C° 0 mm 1 mps 754 mmHg 50%
    04:00 +18°C° 0 mm 1 mps 754 mmHg 51%
    05:00 +18°C° 0 mm 1 mps 755 mmHg 53%
    06:00 +18°C° 0 mm 1 mps 755 mmHg 55%
    07:00 +19°C° 0 mm 2 mps 755 mmHg 51%
    08:00 +20°C° 0 mm 2 mps 755 mmHg 47%
    09:00 +21°C° 0 mm 3 mps 755 mmHg 44%
    10:00 +21°C° 0 mm 3 mps 755 mmHg 46%
    11:00 +21°C° 0 mm 4 mps 755 mmHg 48%
    12:00 +21°C° 0 mm 4 mps 755 mmHg 49%
    13:00 +21°C° 0 mm 4 mps 755 mmHg 51%
    14:00 +20°C° 0 mm 4 mps 755 mmHg 53%
    15:00 +20°C° 0 mm 4 mps 755 mmHg 54%
    16:00 +19°C° 0 mm 3 mps 755 mmHg 59%
    17:00 +18°C° 0 mm 2 mps 755 mmHg 64%
    18:00 +16°C° 0 mm 1 mps 755 mmHg 69%
    19:00 +16°C° 0 mm 1 mps 755 mmHg 69%
    20:00 +16°C° 0 mm 1 mps 755 mmHg 70%
    21:00 +15°C° 0 mm 1 mps 756 mmHg 70%
    22:00 +15°C° 0 mm 1 mps 755 mmHg 69%
    23:00 +15°C° 0 mm 2 mps 755 mmHg 68%

    1 May, Wednesday

    Time Temperature Precipitation Wind Pressure Humidity
    00:00 +14°C° 0 mm 2 mps 755 mmHg 67%
    01:00 +14°C° 0 mm 2 mps 754 mmHg 65%
    02:00 +14°C° 0 mm 2 mps 754 mmHg 62%
    03:00 +14°C° 0 mm 2 mps 754 mmHg 60%
    04:00 +15°C° 0 mm 2 mps 754 mmHg 60%
    05:00 +15°C° 0 mm 2 mps 754 mmHg 60%
    06:00 +16°C° 0 mm 2 mps 754 mmHg 60%
    07:00 +18°C° 0 mm 2 mps 753 mmHg 56%
    08:00 +19°C° 0 mm 2 mps 753 mmHg 52%
    09:00 +21°C° 0 mm 2 mps 753 mmHg 48%
    10:00 +23°C° 0 mm 2 mps 753 mmHg 48%
    11:00 +24°C° 0 mm 3 mps 752 mmHg 49%
    12:00 +24°C° 0 mm 3 mps 752 mmHg 49%
    13:00 +24°C° 0.2 mm 3 mps 751 mmHg 50%
    14:00 +24°C° 0.2 mm 2 mps 751 mmHg 52%
    15:00 +25°C° 0.2 mm 2 mps 751 mmHg 53%
    16:00 +22°C° 0.3 mm 3 mps 751 mmHg 59%
    17:00 +21°C° 0.3 mm 3 mps 751 mmHg 66%
    18:00 +20°C° 0.3 mm 3 mps 751 mmHg 72%
    19:00 +19°C° 0 mm 3 mps 751 mmHg 72%
    20:00 +18°C° 0 mm 2 mps 752 mmHg 72%
    21:00 +17°C° 0 mm 2 mps 752 mmHg 72%
    22:00 +17°C° 0 mm 2 mps 752 mmHg 67%
    23:00 +18°C° 0 mm 1 mps 751 mmHg 63%
    Show more